User: anonymous
Location: Charleston
(38.3500°N, 81.6330°W)
Time: 09:43:01
(UTC-04:00)
Language:

Cosmos 1812 Rocket - Orbit

View from above orbital plane
View from above orbital plane
View from above satellite
View from above satellite

Ground track
Ground track

The orbit data is extracted from the following two-line orbital elements,

1 17296U 87003B   14233.48966803  .00000185  00000-0  19921-4 0  7167
2 17296 082.5273 268.4647 0019336 022.6917 091.8273 14.82658261490365
Epoch (UTC): 21 August 2014 11:45:07
Eccentricity: 0.0019336
inclination: 82.5273°
perigee height: 607 km
apogee height: 634 km
right ascension of ascending node: 268.4647°
argument of perigee: 22.6917°
revolutions per day: 14.82658261
mean anomaly at epoch: 91.8273°
orbit number at epoch: 49036

The dashed part of the orbit path shows where the satellite is in the earth's shadow,  

DLR